#timestamp,LO_Frequency,Hit,StdDev 
1695571215.2,286046998.5,N
1695571235.1,286046998.6,N
1695571236.0,286046998.6,N
1695571255.8,286046998.5,N
1695571275.7,286047001.2,N
1695571295.5,286047001.1,N
1695571315.3,286047000.7,N
1695571335.2,286046999.8,N
1695571355.0,286047002.6,N
1695571355.9,286047002.6,N
1695571375.8,286047002.8,N
1695571395.6,286047000.2,N
1695571415.4,286047002.2,N
1695571435.3,286047000.3,N
1695571455.1,286047000.9,N
1695571475.9,286047000.2,N
1695571495.7,286047000.4,N
1695571515.5,286047002.8,N
1695571535.4,286047001.9,N
1695571555.2,286046999.8,N
1695571575.0,286047000.1,N
1695571575.9,286047000.1,N
1695571595.8,286047000.4,N
1695571615.6,286047002.6,N
1695571635.5,286047002.4,N
1695571655.3,286047000.1,N
1695571675.1,286047002.0,N
1695571695.9,286047002.4,N
1695571715.7,286047000.4,N
1695571735.5,286046999.9,N
1695571755.4,286047000.3,N
1695571775.2,286047000.3,N
1695571795.1,286047000.2,N
1695571796.0,286047000.2,N
1695571815.8,286047002.7,N
1695571835.6,286047002.4,N
1695571855.5,286047002.6,N
1695571875.3,286047002.1,N
1695571895.1,286046999.8,N
1695571915.9,286047002.8,N
1695571935.7,286047002.2,N
1695571955.6,286047001.9,N
1695571975.4,286047002.0,N
1695571995.2,286047002.2,N
1695572015.1,286047002.7,N
1695572016.0,286047002.7,N
1695572035.8,286047002.0,N
1695572055.6,286046999.8,N
1695572075.5,286047000.6,N
1695572095.3,286047001.0,N
1695572115.2,286046999.8,N
1695572135.9,286047002.6,N
1695572155.7,286047000.1,N
1695572175.6,286047002.5,N
1695572195.4,286046999.9,N
1695572215.2,286047002.4,N
1695572235.1,286047002.3,N
1695572236.0,286047002.3,N
1695572255.8,286047000.4,N
1695572275.7,286047000.2,N
1695572295.5,286046999.9,N
1695572315.3,286047002.6,N
1695572335.2,286047002.8,N
1695572355.0,286047001.7,N
1695572355.9,286047001.7,N
1695572375.8,286047002.2,N
1695572395.6,286047001.6,N
1695572415.4,286047002.1,N
1695572435.3,286047001.6,N
1695572455.1,286047001.5,N
1695572475.8,286047001.4,N
1695572495.7,286047001.3,N
1695572515.5,286047003.8,Y
1695572535.4,286047001.7,P
1695572555.2,286047001.9,P
1695572575.0,286047001.9,P
1695572576.0,286047001.9,Y
1695572595.8,286047000.0,P
1695572615.6,286047000.0,N
1695572635.5,286047001.0,N
1695572655.3,286046999.0,N
1695572675.1,286046998.9,N
1695572695.9,286046999.4,N
1695572715.7,286046997.6,N
1695572735.5,286046997.8,N
1695572755.4,286046998.0,N
1695572775.2,286046997.9,N
1695572795.1,286046998.0,N
1695572796.0,286046998.0,N
1695572815.8,286046995.4,Y
1695572835.6,286046995.4,P
1695572855.5,286046995.0,N
1695572875.3,286046997.5,N
1695572895.2,286046995.4,N
1695572915.9,286046995.3,Y
1695572935.7,286047000.8,P
1695572955.6,286047001.2,N
1695572975.4,286046998.1,N
1695572995.2,286046999.3,N
1695573015.1,286046998.6,N
1695573016.0,286046998.6,N
1695573035.8,286046998.8,N
1695573055.7,286046999.3,N
1695573075.5,286046999.1,N
1695573095.3,286046998.8,N
1695573115.2,286046996.7,N
1695573135.0,286046999.1,N
1695573135.9,286046999.1,N
1695573155.7,286046997.2,N
1695573175.6,286046997.3,N
1695573195.4,286046995.9,Y
1695573215.3,286046998.0,P
1695573235.1,286046997.2,P
1695573255.8,286046997.1,P
1695573275.7,286046999.6,N
1695573295.5,286046997.1,Y
1695573315.4,286046999.1,P
1695573335.2,286046999.0,N
1695573355.0,286046997.9,P
1695573355.9,286046997.9,Y
1695573375.8,286046999.4,P
1695573395.6,286046998.7,P
1695573415.4,286046999.6,N
1695573435.3,286046999.5,N
1695573455.1,286046998.1,Y
1695573475.9,286046998.1,P
1695573495.7,286046998.5,N
1695573515.5,286046998.9,N
1695573535.4,286046998.3,Y
1695573555.2,286047000.1,P
1695573575.1,286047000.3,N
1695573576.0,286047000.3,N
1695573595.8,286046999.7,N
1695573615.7,286047001.0,N
1695573635.5,286047000.4,N
1695573655.4,286047000.3,N
1695573675.2,286047000.1,N
1695573695.0,286047000.0,N
1695573695.9,286047000.0,N
1695573715.8,286047000.4,N
1695573735.6,286047000.5,N
1695573755.4,286047000.2,N
1695573775.3,286047000.1,N
1695573795.1,286047000.1,N
1695573815.9,286047002.8,Y
1695573835.7,286046999.9,P
1695573855.5,286047000.3,N
1695573875.4,286047000.4,N
1695573895.2,286047000.3,N
1695573915.0,286047000.4,N
1695573916.0,286047000.4,N
1695573935.8,286047000.8,Y
1695573955.6,286047001.2,P
1695573975.5,286047001.0,N
1695573995.3,286047000.5,N
1695574015.1,286047000.6,N
1695574035.9,286047000.8,N
1695574055.7,286046998.5,Y
1695574075.6,286046999.1,P
1695574095.4,286046998.8,N
1695574115.2,286046998.8,N
1695574135.1,286046998.7,N
1695574136.0,286046998.7,N
1695574155.8,286046998.3,N
1695574175.6,286046998.7,N
1695574195.5,286046998.8,N
1695574215.3,286046999.1,N
1695574235.2,286046996.5,Y
1695574255.9,286046999.0,P
1695574275.7,286046999.6,P
1695574295.6,286046996.5,P
1695574315.4,286046999.0,N
1695574335.2,286046998.8,N
1695574355.1,286046998.6,N
1695574356.0,286046998.6,N
1695574375.8,286046998.4,N
1695574395.7,286046998.5,N
1695574415.5,286046998.1,N
1695574435.3,286047000.5,N
1695574455.2,286047000.5,N
1695574475.0,286046999.9,N
1695574475.9,286046999.9,N
1695574495.8,286047000.3,N
1695574515.6,286047000.6,N
1695574535.4,286047001.0,N
1695574555.3,286046998.5,N
1695574575.1,286046998.2,N
1695574595.8,286046998.1,N
1695574615.7,286047000.6,N
1695574635.5,286046998.2,N
1695574655.3,286046998.6,N
1695574675.2,286046999.0,N
1695574695.0,286047001.0,N
1695574695.9,286047001.0,N
1695574715.8,286046998.6,N
1695574735.6,286046998.3,N
1695574755.4,286046999.5,N
1695574775.3,286046999.4,N
1695574795.1,286046998.3,N
